Skip Page Navigation
NASA JPL Caltech
NASA Logo - Jet Propulsion Laboratory + View the NASA Portal
+ Center for Near-Earth Object Studies
JPL Home Earth Solar System Stars & Galaxies Technology
JPL Solar System Dynamics
BODIES ORBITS EPHEMERIDES TOOLS PHYSICAL DATA DISCOVERY FAQ SITE MAP
JPL Small-Body Database Browser
Search: [ help ]  
173559 (2000 YV128)
Classification: Main-belt Asteroid          SPK-ID: 2173559
Ephemeris | Orbit Diagram | Orbital Elements | Mission Design | Physical Parameters | Discovery Circumstances ]

[ show orbit diagram ]
Orbital Elements at Epoch 2459000.5 (2020-May-31.0) TDB
Reference: JPL 16 (heliocentric ecliptic J2000)
 Element Value Uncertainty (1-sigma)   Units 
e .07120171275343178 4.6905e-08  
a 2.341246429070089 1.3795e-08 au
q 2.174545673342442 1.0957e-07 au
i 5.776022778885495 4.6149e-06 deg
node 92.87467955710871 5.4789e-05 deg
peri 41.5472544987164 6.5632e-05 deg
M 139.0903557795694 3.6356e-05 deg
tp 2458494.950557163884
(2019-Jan-11.45055716)
0.00013129 TDB
period 1308.486116100185
3.58
1.1565e-05
3.166e-08
d
yr
n .2751271072504344 2.4317e-09 deg/d
Q 2.507947184797735 1.4778e-08 au
  Orbit Determination Parameters
   # obs. used (total)      293  
   data-arc span      8186 days (22.41 yr)  
   first obs. used      1996-12-08  
   last obs. used      2019-05-08  
   planetary ephem.      DE431  
   SB-pert. ephem.      SB431-N16  
   condition code      0  
   norm. resid. RMS      .62616  
   source      ORB  
   producer      Otto Matic  
   solution date      2020-Feb-24 17:05:57  

Additional Information
 Earth MOID = 1.19284 au 
 Jupiter MOID = 2.5129 au 
 T_jup = 3.554 
[ show covariance matrix ]

Ephemeris | Orbit Diagram | Orbital Elements | Mission Design | Physical Parameters | Discovery Circumstances ]

Physical Parameter Table
Parameter Symbol Value Units Sigma Reference Notes
absolute magnitude H 16.8   n/a MPO427058  

173559 (2000 YV128)          Discovered 2000-Dec-29 by NEAT at Haleakala
Reference: 20080122/Numbers.arcLast Updated: 2008-01-28

Alternate Designations
 2000 YV128 = 2005 GH153 
Ephemeris | Orbit Diagram | Orbital Elements | Mission Design | Physical Parameters | Discovery Circumstances ]
ABOUT SSD CREDITS/AWARDS PRIVACY/COPYRIGHT GLOSSARY LINKS
FirstGov 2020-Aug-04 17:20 UT
(server date/time)  
NASA Home Page
Site Manager:   Ryan S. Park
Webmaster  Alan B. Chamberlin